| time (UTC) | temp F | wind direction | speed MPH | gust MPH | rain 1hr in | rain 24hr in | rain mn in | humidity % | barometer mb |
| 20260505224034 | 84 | 11 | 5.0 | 13.0 | 0.00 | 0.00 | 0.00 | 55 | 1004.7 |
| 20260505223534 | 84 | 309 | 6.0 | 13.0 | 0.00 | 0.00 | 0.00 | 54 | 1004.5 |
| 20260505223055 | 84 | 306 | 5.0 | 11.0 | 0.00 | 0.00 | 0.00 | 53 | 1004.4 |
| 20260505222534 | 85 | 297 | 5.0 | 11.0 | 0.00 | 0.00 | 0.00 | 52 | 1004.4 |
| 20260505222034 | 86 | 296 | 5.0 | 13.0 | 0.00 | 0.00 | 0.00 | 52 | 1004.2 |
| 20260505221552 | 86 | 326 | 5.0 | 13.0 | 0.00 | 0.00 | 0.00 | 51 | 1004.0 |
| 20260505221036 | 86 | 286 | 5.0 | 12.0 | 0.00 | 0.00 | 0.00 | 52 | 1004.0 |
| 20260505220537 | 86 | 298 | 6.0 | 12.0 | 0.00 | 0.00 | 0.00 | 53 | 1004.1 |
| 20260505220047 | 87 | 244 | 5.0 | 14.0 | 0.00 | 0.00 | 0.00 | 58 | 1003.9 |
| 20260505215535 | 87 | 259 | 7.0 | 14.0 | 0.00 | 0.00 | 0.00 | 57 | 1003.9 |
| 20260505215035 | 88 | 243 | 5.0 | 14.0 | 0.00 | 0.00 | 0.00 | 57 | 1003.9 |
| 20260505214557 | 88 | 243 | 6.0 | 14.0 | 0.00 | 0.00 | 0.00 | 56 | 1004.2 |
| 20260505214034 | 88 | 225 | 6.0 | 15.0 | 0.00 | 0.00 | 0.00 | 57 | 1004.2 |
| 20260505213535 | 88 | 283 | 8.0 | 15.0 | 0.00 | 0.00 | 0.00 | 58 | 1004.1 |
| 20260505213057 | 88 | 248 | 9.0 | 15.0 | 0.00 | 0.00 | 0.00 | 57 | 1004.2 |
| 20260505212534 | 88 | 235 | 6.0 | 15.0 | 0.00 | 0.00 | 0.00 | 58 | 1004.2 |
| 20260505212035 | 87 | 239 | 10.0 | 16.0 | 0.00 | 0.00 | 0.00 | 58 | 1004.2 |
| 20260505211545 | 87 | 251 | 6.0 | 16.0 | 0.00 | 0.00 | 0.00 | 58 | 1004.3 |
| 20260505211036 | 87 | 250 | 9.0 | 18.0 | 0.00 | 0.00 | 0.00 | 58 | 1004.4 |
| 20260505210536 | 87 | 230 | 10.0 | 18.0 | 0.00 | 0.00 | 0.00 | 58 | 1004.5 |
| 20260505210049 | 87 | 242 | 9.0 | 17.0 | 0.00 | 0.00 | 0.00 | 59 | 1004.5 |
| 20260505205535 | 87 | 237 | 8.0 | 15.0 | 0.00 | 0.00 | 0.00 | 59 | 1004.3 |
| 20260505205035 | 87 | 237 | 7.0 | 12.0 | 0.00 | 0.00 | 0.00 | 59 | 1004.5 |
| 20260505204544 | 87 | 244 | 6.0 | 11.0 | 0.00 | 0.00 | 0.00 | 60 | 1004.6 |
| 20260505204035 | 86 | 231 | 7.0 | 14.0 | 0.00 | 0.00 | 0.00 | 60 | 1004.6 |
| 20260505203535 | 86 | 284 | 6.0 | 14.0 | 0.00 | 0.00 | 0.00 | 60 | 1004.6 |
| 20260505203046 | 86 | 250 | 6.0 | 12.0 | 0.00 | 0.00 | 0.00 | 60 | 1004.7 |
| 20260505202535 | 86 | 262 | 7.0 | 16.0 | 0.00 | 0.00 | 0.00 | 59 | 1004.8 |
| 20260505202038 | 86 | 233 | 9.0 | 16.0 | 0.00 | 0.00 | 0.00 | 59 | 1004.9 |
| 20260505201552 | 86 | 251 | 7.0 | 16.0 | 0.00 | 0.00 | 0.00 | 60 | 1004.9 |
| 20260505201035 | 86 | 234 | 7.0 | 13.0 | 0.00 | 0.00 | 0.00 | 61 | 1004.8 |
| 20260505200535 | 86 | 256 | 8.0 | 17.0 | 0.00 | 0.00 | 0.00 | 61 | 1004.7 |
| 20260505200040 | 85 | 240 | 8.0 | 18.0 | 0.00 | 0.00 | 0.00 | 61 | 1004.8 |
| 20260505195534 | 86 | 262 | 12.0 | 18.0 | 0.00 | 0.00 | 0.00 | 60 | 1004.9 |
| 20260505195035 | 86 | 276 | 10.0 | 17.0 | 0.00 | 0.00 | 0.00 | 59 | 1004.8 |
| 20260505194543 | 86 | 247 | 9.0 | 18.0 | 0.00 | 0.00 | 0.00 | 58 | 1004.9 |
| 20260505194036 | 86 | 241 | 11.0 | 18.0 | 0.00 | 0.00 | 0.00 | 60 | 1004.9 |
| 20260505193535 | 86 | 196 | 7.0 | 15.0 | 0.00 | 0.00 | 0.00 | 59 | 1004.8 |
| 20260505193049 | 86 | 252 | 7.0 | 16.0 | 0.00 | 0.00 | 0.00 | 63 | 1004.7 |
| 20260505192537 | 85 | 277 | 10.0 | 16.0 | 0.00 | 0.00 | 0.00 | 60 | 1004.7 |
| 20260505192035 | 85 | 231 | 8.0 | 16.0 | 0.00 | 0.00 | 0.00 | 62 | 1004.9 |
| 20260505191552 | 85 | 233 | 6.0 | 16.0 | 0.00 | 0.00 | 0.00 | 63 | 1004.8 |
| 20260505191035 | 85 | 231 | 7.0 | 14.0 | 0.00 | 0.00 | 0.00 | 64 | 1004.7 |
| 20260505190535 | 85 | 260 | 5.0 | 16.0 | 0.00 | 0.00 | 0.00 | 65 | 1004.6 |
| 20260505190055 | 85 | 274 | 6.0 | 16.0 | 0.00 | 0.00 | 0.00 | 66 | 1004.7 |
| 20260505185536 | 85 | 150 | 8.0 | 16.0 | 0.00 | 0.00 | 0.00 | 66 | 1004.7 |
| 20260505185035 | 84 | 242 | 8.0 | 17.0 | 0.00 | 0.00 | 0.00 | 66 | 1004.8 |
| 20260505184552 | 84 | 243 | 7.0 | 17.0 | 0.00 | 0.00 | 0.00 | 67 | 1004.8 |
| 20260505184036 | 84 | 237 | 5.0 | 14.0 | 0.00 | 0.00 | 0.00 | 67 | 1004.8 |
| 20260505183539 | 83 | 229 | 5.0 | 14.0 | 0.00 | 0.00 | 0.00 | 69 | 1004.9 |
| 20260505183048 | 83 | 166 | 7.0 | 14.0 | 0.00 | 0.00 | 0.00 | 69 | 1004.8 |
| 20260505182536 | 83 | 202 | 6.0 | 14.0 | 0.00 | 0.00 | 0.00 | 69 | 1004.9 |
| 20260505182034 | 82 | 220 | 6.0 | 14.0 | 0.00 | 0.00 | 0.00 | 69 | 1005.1 |
| 20260505181540 | 82 | 249 | 6.0 | 19.0 | 0.00 | 0.00 | 0.00 | 70 | 1005.2 |
| 20260505181039 | 82 | 238 | 10.0 | 19.0 | 0.00 | 0.00 | 0.00 | 69 | 1005.1 |
| 20260505180538 | 83 | 163 | 9.0 | 18.0 | 0.00 | 0.00 | 0.00 | 69 | 1005.1 |
| 20260505180050 | 83 | 313 | 8.0 | 18.0 | 0.00 | 0.00 | 0.00 | 70 | 1004.9 |
| 20260505175535 | 82 | 146 | 8.0 | 19.0 | 0.00 | 0.00 | 0.00 | 70 | 1005.0 |
| 20260505175035 | 81 | 237 | 8.0 | 23.0 | 0.00 | 0.00 | 0.00 | 71 | 1004.9 |
| 20260505174542 | 81 | 244 | 12.0 | 23.0 | 0.00 | 0.00 | 0.00 | 70 | 1004.9 |
| 20260505174035 | 81 | 188 | 8.0 | 21.0 | 0.00 | 0.00 | 0.00 | 71 | 1005.0 |
| 20260505173534 | 81 | 235 | 11.0 | 21.0 | 0.00 | 0.00 | 0.00 | 71 | 1005.0 |
| 20260505173044 | 81 | 233 | 7.0 | 19.0 | 0.00 | 0.00 | 0.00 | 72 | 1005.0 |
| 20260505172534 | 80 | 243 | 8.0 | 17.0 | 0.00 | 0.00 | 0.00 | 74 | 1005.0 |
| 20260505172033 | 79 | 212 | 7.0 | 16.0 | 0.00 | 0.00 | 0.00 | 74 | 1004.9 |
| 20260505171548 | 79 | 215 | 9.0 | 16.0 | 0.00 | 0.00 | 0.00 | 74 | 1005.2 |
| 20260505171033 | 78 | 243 | 7.0 | 18.0 | 0.00 | 0.00 | 0.00 | 75 | 1004.7 |
| 20260505170530 | 78 | 248 | 10.0 | 18.0 | 0.00 | 0.00 | 0.00 | 75 | 1005.4 |
| 20260505170049 | 78 | 237 | 8.0 | 20.0 | 0.00 | 0.00 | 0.00 | 74 | 1005.1 |
| 20260505165530 | 78 | 238 | 9.0 | 20.0 | 0.00 | 0.00 | 0.00 | 75 | 1005.1 |
| 20260505165034 | 78 | 264 | 9.0 | 17.0 | 0.00 | 0.00 | 0.00 | 75 | 1005.1 |
| 20260505164543 | 78 | 219 | 8.0 | 18.0 | 0.00 | 0.00 | 0.00 | 76 | 1004.9 |
| 20260505164032 | 77 | 257 | 10.0 | 18.0 | 0.00 | 0.00 | 0.00 | 75 | 1005.4 |
| 20260505163533 | 77 | 266 | 7.0 | 17.0 | 0.00 | 0.00 | 0.00 | 75 | 1004.6 |
| 20260505163041 | 77 | 231 | 7.0 | 20.0 | 0.00 | 0.00 | 0.00 | 76 | 1005.0 |
| 20260505162530 | 77 | 224 | 10.0 | 21.0 | 0.00 | 0.00 | 0.00 | 75 | 1005.5 |
| 20260505162033 | 78 | 232 | 12.0 | 21.0 | 0.00 | 0.00 | 0.00 | 75 | 1005.5 |
| 20260505161541 | 78 | 233 | 9.0 | 22.0 | 0.00 | 0.00 | 0.00 | 75 | 1004.9 |
| 20260505161034 | 78 | 239 | 12.0 | 23.0 | 0.00 | 0.00 | 0.00 | 75 | 1005.1 |
| 20260505160536 | 78 | 227 | 12.0 | 23.0 | 0.00 | 0.00 | 0.00 | 75 | 1005.1 |
| 20260505153052 | 76 | 255 | 9.0 | 20.0 | 0.00 | 0.00 | 0.00 | 77 | 1004.7 |
| 20260505152532 | 76 | 236 | 10.0 | 25.0 | 0.00 | 0.00 | 0.00 | 77 | 1004.7 |
| 20260505152033 | 76 | 236 | 11.0 | 25.0 | 0.00 | 0.00 | 0.00 | 78 | 1005.0 |
| 20260505151543 | 76 | 231 | 11.0 | 25.0 | 0.00 | 0.00 | 0.00 | 77 | 1005.0 |
| 20260505151033 | 76 | 223 | 6.0 | 19.0 | 0.00 | 0.00 | 0.00 | 78 | 1005.0 |
| 20260505150532 | 76 | 231 | 9.0 | 20.0 | 0.00 | 0.00 | 0.00 | 78 | 1005.0 |
| 20260505140535 | 74 | 246 | 6.0 | 15.0 | 0.00 | 0.00 | 0.00 | 82 | 1004.6 |
| 20260505125035 | 72 | 240 | 5.0 | 12.0 | 0.00 | 0.00 | 0.00 | 84 | 1004.5 |
| 20260505124605 | 72 | 298 | 5.0 | 12.0 | 0.00 | 0.00 | 0.00 | 85 | 1004.5 |
| 20260505124034 | 72 | 223 | 4.0 | 18.0 | 0.00 | 0.00 | 0.00 | 85 | 1004.4 |
| 20260505123534 | 71 | 207 | 6.0 | 18.0 | 0.00 | 0.00 | 0.00 | 85 | 1004.3 |
| 20260505123110 | 71 | 238 | 8.0 | 18.0 | 0.00 | 0.00 | 0.00 | 85 | 1004.4 |
| 20260505122534 | 71 | 225 | 3.0 | 10.0 | 0.00 | 0.00 | 0.00 | 86 | 1004.3 |
| 20260505122036 | 71 | 151 | 4.0 | 10.0 | 0.00 | 0.00 | 0.00 | 86 | 1004.3 |
| 20260505121549 | 71 | 169 | 4.0 | 10.0 | 0.00 | 0.00 | 0.00 | 86 | 1004.3 |
| 20260505121038 | 70 | 191 | 4.0 | 10.0 | 0.00 | 0.00 | 0.00 | 87 | 1004.3 |
| 20260505120535 | 70 | 155 | 3.0 | 10.0 | 0.00 | 0.00 | 0.00 | 87 | 1004.3 |
| 20260505120052 | 70 | 161 | 3.0 | 10.0 | 0.00 | 0.00 | 0.00 | 87 | 1004.1 |
| 20260505115535 | 70 | 160 | 3.0 | 9.0 | 0.00 | 0.00 | 0.00 | 87 | 1004.2 |
| 20260505115034 | 70 | 205 | 4.0 | 9.0 | 0.00 | 0.00 | 0.00 | 87 | 1004.1 |
| 20260505114553 | 70 | 192 | 5.0 | 11.0 | 0.00 | 0.00 | 0.00 | 87 | 1004.1 |
| 20260505114035 | 70 | 263 | 4.0 | 12.0 | 0.00 | 0.00 | 0.00 | 86 | 1003.9 |
| 20260505113535 | 70 | 254 | 5.0 | 12.0 | 0.00 | 0.00 | 0.00 | 86 | 1004.0 |
| 20260505113044 | 71 | 167 | 5.0 | 12.0 | 0.00 | 0.00 | 0.00 | 86 | 1004.0 |
| 20260505112535 | 71 | 214 | 5.0 | 11.0 | 0.00 | 0.00 | 0.00 | 86 | 1004.0 |
| 20260505112035 | 71 | 189 | 4.0 | 11.0 | 0.00 | 0.00 | 0.00 | 86 | 1003.9 |
| 20260505111557 | 71 | 214 | 5.0 | 13.0 | 0.00 | 0.00 | 0.00 | 86 | 1004.0 |
| 20260505111035 | 71 | 147 | 3.0 | 14.0 | 0.00 | 0.00 | 0.00 | 85 | 1003.8 |
| 20260505110535 | 71 | 216 | 5.0 | 14.0 | 0.00 | 0.00 | 0.00 | 85 | 1003.8 |
| 20260505102035 | 71 | 140 | 5.0 | 13.0 | 0.00 | 0.00 | 0.00 | 86 | 1003.9 |
| 20260505101546 | 71 | 205 | 6.0 | 13.0 | 0.00 | 0.00 | 0.00 | 86 | 1004.0 |
| 20260505101035 | 71 | 226 | 4.0 | 14.0 | 0.00 | 0.00 | 0.00 | 86 | 1004.0 |
| 20260505100536 | 71 | 214 | 4.0 | 16.0 | 0.00 | 0.00 | 0.00 | 86 | 1003.9 |
| 20260505100044 | 71 | 211 | 6.0 | 16.0 | 0.00 | 0.00 | 0.00 | 86 | 1003.9 |
| 20260505095534 | 71 | 181 | 7.0 | 16.0 | 0.00 | 0.00 | 0.00 | 86 | 1003.9 |
| 20260505095034 | 70 | 240 | 6.0 | 16.0 | 0.00 | 0.00 | 0.00 | 86 | 1004.0 |
| 20260505094550 | 70 | 184 | 5.0 | 14.0 | 0.00 | 0.00 | 0.00 | 86 | 1004.0 |
| 20260505094035 | 70 | 187 | 6.0 | 14.0 | 0.00 | 0.00 | 0.00 | 86 | 1004.0 |
| 20260505093535 | 70 | 233 | 6.0 | 18.0 | 0.00 | 0.00 | 0.00 | 86 | 1004.1 |
| 20260505093049 | 70 | 217 | 6.0 | 18.0 | 0.00 | 0.00 | 0.00 | 86 | 1004.3 |
| 20260505092535 | 70 | 231 | 6.0 | 11.0 | 0.00 | 0.00 | 0.00 | 86 | 1004.3 |
| 20260505092036 | 70 | 243 | 5.0 | 10.0 | 0.00 | 0.00 | 0.00 | 86 | 1004.3 |
| 20260505091548 | 70 | 175 | 5.0 | 14.0 | 0.00 | 0.00 | 0.00 | 86 | 1004.4 |
| 20260505091035 | 70 | 195 | 6.0 | 17.0 | 0.00 | 0.00 | 0.00 | 86 | 1004.4 |
| 20260505090535 | 70 | 143 | 6.0 | 17.0 | 0.00 | 0.00 | 0.00 | 86 | 1004.3 |
| 20260505090105 | 70 | 226 | 6.0 | 12.0 | 0.00 | 0.00 | 0.00 | 86 | 1004.4 |
| 20260505085535 | 70 | 212 | 7.0 | 12.0 | 0.00 | 0.00 | 0.00 | 86 | 1004.4 |
| 20260505085035 | 70 | 165 | 4.0 | 11.0 | 0.00 | 0.00 | 0.00 | 86 | 1004.3 |
| 20260505084541 | 70 | 177 | 5.0 | 16.0 | 0.00 | 0.00 | 0.00 | 86 | 1004.3 |
| 20260505084034 | 70 | 219 | 6.0 | 16.0 | 0.00 | 0.00 | 0.00 | 86 | 1004.4 |
| 20260505083536 | 70 | 214 | 5.0 | 13.0 | 0.00 | 0.00 | 0.00 | 85 | 1004.5 |
| 20260505083043 | 70 | 206 | 6.0 | 13.0 | 0.00 | 0.00 | 0.00 | 85 | 1004.4 |
| 20260505082535 | 70 | 149 | 5.0 | 13.0 | 0.00 | 0.00 | 0.00 | 85 | 1004.3 |
| 20260505082036 | 71 | 240 | 3.0 | 14.0 | 0.00 | 0.00 | 0.00 | 85 | 1004.4 |
| 20260505081550 | 71 | 165 | 5.0 | 14.0 | 0.00 | 0.00 | 0.00 | 84 | 1004.4 |
| 20260505081036 | 71 | 158 | 7.0 | 15.0 | 0.00 | 0.00 | 0.00 | 84 | 1004.5 |
| 20260505080535 | 71 | 152 | 6.0 | 15.0 | 0.00 | 0.00 | 0.00 | 84 | 1004.5 |
| 20260505080055 | 71 | 252 | 6.0 | 15.0 | 0.00 | 0.00 | 0.00 | 84 | 1004.5 |
| 20260505075533 | 71 | 197 | 5.0 | 15.0 | 0.00 | 0.00 | 0.00 | 83 | 1004.6 |
| 20260505075034 | 71 | 160 | 4.0 | 16.0 | 0.00 | 0.00 | 0.00 | 83 | 1004.6 |
| 20260505074546 | 71 | 158 | 8.0 | 16.0 | 0.00 | 0.00 | 0.00 | 83 | 1004.7 |
| 20260505074036 | 71 | 227 | 5.0 | 15.0 | 0.00 | 0.00 | 0.00 | 83 | 1004.8 |
| 20260505073532 | 71 | 204 | 5.0 | 13.0 | 0.00 | 0.00 | 0.00 | 82 | 1004.8 |
| 20260505073054 | 71 | 200 | 4.0 | 16.0 | 0.00 | 0.00 | 0.00 | 82 | 1004.9 |
| 20260505072535 | 72 | 153 | 5.0 | 16.0 | 0.00 | 0.00 | 0.00 | 82 | 1005.1 |
| 20260505072030 | 72 | 251 | 6.0 | 15.0 | 0.00 | 0.00 | 0.00 | 81 | 1005.1 |
| 20260505071545 | 72 | 173 | 5.0 | 15.0 | 0.00 | 0.00 | 0.00 | 81 | 1005.0 |
| 20260505071034 | 72 | 146 | 6.0 | 16.0 | 0.00 | 0.00 | 0.00 | 81 | 1005.1 |
| 20260505070533 | 72 | 163 | 7.0 | 16.0 | 0.00 | 0.00 | 0.00 | 81 | 1005.1 |
| 20260505070052 | 72 | 200 | 6.0 | 15.0 | 0.00 | 0.00 | 0.00 | 81 | 1005.3 |
| 20260505065530 | 72 | 214 | 6.0 | 14.0 | 0.00 | 0.00 | 0.00 | 80 | 1005.4 |
| 20260505065029 | 72 | 218 | 5.0 | 13.0 | 0.00 | 0.00 | 0.00 | 80 | 1005.4 |
| 20260505064540 | 72 | 224 | 6.0 | 14.0 | 0.00 | 0.00 | 0.00 | 80 | 1005.6 |
| 20260505064030 | 72 | 198 | 6.0 | 14.0 | 0.00 | 0.00 | 0.00 | 80 | 1005.6 |
| 20260505063530 | 72 | 212 | 8.0 | 16.0 | 0.00 | 0.00 | 0.00 | 80 | 1005.7 |
| 20260505063037 | 72 | 239 | 7.0 | 16.0 | 0.00 | 0.00 | 0.00 | 80 | 1005.7 |
| 20260505062530 | 72 | 227 | 6.0 | 15.0 | 0.00 | 0.00 | 0.00 | 80 | 1005.8 |
| 20260505062031 | 72 | 197 | 6.0 | 15.0 | 0.00 | 0.00 | 0.00 | 79 | 1005.7 |
| 20260505061542 | 72 | 181 | 5.0 | 16.0 | 0.00 | 0.00 | 0.00 | 79 | 1005.6 |
| 20260505061030 | 72 | 153 | 6.0 | 16.0 | 0.00 | 0.00 | 0.00 | 79 | 1005.7 |
| 20260505060530 | 72 | 255 | 7.0 | 14.0 | 0.00 | 0.00 | 0.00 | 79 | 1005.7 |
| 20260505060045 | 72 | 163 | 5.0 | 14.0 | 0.00 | 0.00 | 0.00 | 79 | 1005.5 |
| 20260505055530 | 72 | 191 | 6.0 | 14.0 | 0.00 | 0.00 | 0.00 | 79 | 1005.6 |
| 20260505055030 | 72 | 201 | 6.0 | 14.0 | 0.00 | 0.00 | 0.00 | 79 | 1005.6 |
| 20260505054544 | 72 | 146 | 6.0 | 14.0 | 0.00 | 0.00 | 0.00 | 79 | 1005.8 |
| 20260505054033 | 72 | 169 | 7.0 | 14.0 | 0.00 | 0.00 | 0.00 | 78 | 1005.9 |
| 20260505053535 | 72 | 216 | 6.0 | 14.0 | 0.00 | 0.00 | 0.00 | 78 | 1006.0 |
| 20260505053042 | 72 | 229 | 6.0 | 14.0 | 0.00 | 0.00 | 0.00 | 78 | 1005.9 |
| 20260505052535 | 72 | 202 | 6.0 | 13.0 | 0.00 | 0.00 | 0.00 | 78 | 1006.1 |
| 20260505052030 | 72 | 157 | 6.0 | 14.0 | 0.00 | 0.00 | 0.00 | 78 | 1006.1 |
| 20260505051547 | 72 | 171 | 5.0 | 14.0 | 0.00 | 0.00 | 0.00 | 78 | 1006.2 |
| 20260505051031 | 72 | 193 | 5.0 | 12.0 | 0.00 | 0.00 | 0.00 | 77 | 1006.2 |
| 20260505050533 | 72 | 141 | 5.0 | 12.0 | 0.00 | 0.00 | 0.00 | 77 | 1006.4 |
| 20260505050123 | 72 | 217 | 5.0 | 14.0 | 0.00 | 0.00 | 0.00 | 77 | 1006.3 |
| 20260505041555 | 73 | 215 | 7.0 | 21.0 | 0.00 | 0.00 | 0.00 | 75 | 1006.3 |
| 20260505041035 | 73 | 167 | 8.0 | 21.0 | 0.00 | 0.00 | 0.00 | 75 | 1006.4 |
| 20260505040535 | 73 | 171 | 5.0 | 15.0 | 0.00 | 0.00 | 0.00 | 75 | 1006.4 |
| 20260505040053 | 73 | 169 | 5.0 | 16.0 | 0.00 | 0.00 | 0.00 | 75 | 1006.4 |
| 20260505035535 | 73 | 158 | 8.0 | 16.0 | 0.00 | 0.00 | 0.00 | 75 | 1006.3 |
| 20260505035035 | 73 | 150 | 6.0 | 17.0 | 0.00 | 0.00 | 0.00 | 75 | 1006.3 |
| 20260505034545 | 73 | 143 | 7.0 | 17.0 | 0.00 | 0.00 | 0.00 | 74 | 1006.4 |
| 20260505034035 | 73 | 148 | 8.0 | 17.0 | 0.00 | 0.00 | 0.00 | 74 | 1006.4 |
| 20260505033536 | 73 | 194 | 7.0 | 17.0 | 0.00 | 0.00 | 0.00 | 74 | 1006.4 |
| 20260505033050 | 73 | 169 | 9.0 | 17.0 | 0.00 | 0.00 | 0.00 | 74 | 1006.5 |
| 20260505032535 | 73 | 214 | 6.0 | 15.0 | 0.00 | 0.00 | 0.00 | 74 | 1006.6 |
| 20260505032034 | 73 | 125 | 7.0 | 15.0 | 0.00 | 0.00 | 0.00 | 74 | 1006.4 |
| 20260505031550 | 73 | 261 | 6.0 | 15.0 | 0.00 | 0.00 | 0.00 | 73 | 1006.5 |
| 20260505031036 | 73 | 250 | 5.0 | 15.0 | 0.00 | 0.00 | 0.00 | 73 | 1006.4 |
| 20260505030535 | 73 | 153 | 5.0 | 20.0 | 0.00 | 0.00 | 0.00 | 73 | 1006.3 |
| 20260505030049 | 74 | 213 | 6.0 | 20.0 | 0.00 | 0.00 | 0.00 | 73 | 1006.3 |
| 20260505025536 | 74 | 184 | 7.0 | 20.0 | 0.00 | 0.00 | 0.00 | 72 | 1006.4 |
| 20260505025036 | 74 | 178 | 6.0 | 15.0 | 0.00 | 0.00 | 0.00 | 72 | 1006.2 |
| 20260505024548 | 74 | 151 | 9.0 | 18.0 | 0.00 | 0.00 | 0.00 | 72 | 1006.2 |
| 20260505024035 | 74 | 155 | 6.0 | 18.0 | 0.00 | 0.00 | 0.00 | 72 | 1006.2 |
| 20260505023537 | 74 | 189 | 7.0 | 18.0 | 0.00 | 0.00 | 0.00 | 71 | 1006.4 |
| 20260505023045 | 74 | 234 | 5.0 | 15.0 | 0.00 | 0.00 | 0.00 | 71 | 1006.2 |
| 20260505022535 | 74 | 240 | 9.0 | 16.0 | 0.00 | 0.00 | 0.00 | 71 | 1006.2 |
| 20260505022035 | 74 | 179 | 7.0 | 16.0 | 0.00 | 0.00 | 0.00 | 71 | 1006.2 |
| 20260505021543 | 75 | 166 | 7.0 | 16.0 | 0.00 | 0.00 | 0.00 | 70 | 1006.2 |
| 20260505021035 | 75 | 162 | 7.0 | 16.0 | 0.00 | 0.00 | 0.00 | 70 | 1006.1 |
| 20260505020535 | 75 | 177 | 7.0 | 16.0 | 0.00 | 0.00 | 0.00 | 70 | 1006.1 |
| 20260505020041 | 75 | 82 | 7.0 | 16.0 | 0.00 | 0.00 | 0.00 | 70 | 1006.1 |
| 20260505015535 | 75 | 174 | 7.0 | 17.0 | 0.00 | 0.00 | 0.00 | 70 | 1006.1 |
| 20260505015035 | 75 | 163 | 7.0 | 18.0 | 0.00 | 0.00 | 0.00 | 70 | 1006.0 |
| 20260505014604 | 75 | 117 | 6.0 | 18.0 | 0.00 | 0.00 | 0.00 | 69 | 1006.1 |
| 20260505014038 | 75 | 259 | 6.0 | 18.0 | 0.00 | 0.00 | 0.00 | 69 | 1006.2 |
| 20260505013533 | 75 | 198 | 5.0 | 17.0 | 0.00 | 0.00 | 0.00 | 69 | 1006.2 |
| 20260505013049 | 75 | 161 | 7.0 | 17.0 | 0.00 | 0.00 | 0.00 | 69 | 1006.1 |
| 20260505012533 | 75 | 165 | 7.0 | 15.0 | 0.00 | 0.00 | 0.00 | 68 | 1006.2 |
| 20260505012034 | 75 | 180 | 7.0 | 16.0 | 0.00 | 0.00 | 0.00 | 68 | 1006.3 |
| 20260505011546 | 75 | 239 | 7.0 | 16.0 | 0.00 | 0.00 | 0.00 | 68 | 1006.2 |
| 20260505011034 | 75 | 226 | 8.0 | 16.0 | 0.00 | 0.00 | 0.00 | 68 | 1006.4 |
| 20260505010530 | 76 | 200 | 4.0 | 15.0 | 0.00 | 0.00 | 0.00 | 68 | 1006.4 |
| 20260505010045 | 76 | 159 | 7.0 | 15.0 | 0.00 | 0.00 | 0.00 | 67 | 1006.3 |
| 20260505005530 | 76 | 167 | 7.0 | 15.0 | 0.00 | 0.00 | 0.00 | 67 | 1006.4 |
| 20260505005030 | 76 | 180 | 7.0 | 13.0 | 0.00 | 0.00 | 0.00 | 66 | 1006.2 |
| 20260505004545 | 77 | 209 | 6.0 | 14.0 | 0.00 | 0.00 | 0.00 | 66 | 1006.2 |
| 20260505004033 | 77 | 161 | 5.0 | 18.0 | 0.00 | 0.00 | 0.00 | 65 | 1006.3 |
| 20260505003529 | 77 | 276 | 8.0 | 18.0 | 0.00 | 0.00 | 0.00 | 65 | 1006.4 |
| 20260505003039 | 77 | 167 | 10.0 | 18.0 | 0.00 | 0.00 | 0.00 | 64 | 1006.3 |
| 20260505002537 | 78 | 177 | 9.0 | 27.0 | 0.00 | 0.00 | 0.00 | 63 | 1006.5 |
| 20260505002034 | 78 | 210 | 11.0 | 27.0 | 0.00 | 0.00 | 0.00 | 63 | 1006.4 |
| 20260505001542 | 78 | 183 | 9.0 | 25.0 | 0.00 | 0.00 | 0.00 | 62 | 1006.5 |
| 20260505001033 | 78 | 167 | 8.0 | 16.0 | 0.00 | 0.00 | 0.00 | 62 | 1006.5 |
| 20260505000536 | 79 | 174 | 7.0 | 20.0 | 0.00 | 0.00 | 0.00 | 62 | 1006.3 |
| 20260505000051 | 78 | 178 | 9.0 | 20.0 | 0.00 | 0.00 | 0.00 | 63 | 1006.3 |
| 20260504235533 | 78 | 265 | 9.0 | 18.0 | 0.00 | 0.00 | 0.00 | 63 | 1006.2 |
| 20260504235034 | 78 | 212 | 6.0 | 16.0 | 0.00 | 0.00 | 0.00 | 63 | 1006.3 |
| 20260504234603 | 78 | 172 | 8.0 | 22.0 | 0.00 | 0.00 | 0.00 | 63 | 1006.5 |
| 20260504234030 | 78 | 207 | 10.0 | 22.0 | 0.00 | 0.00 | 0.00 | 62 | 1006.6 |
| 20260504233530 | 79 | 169 | 9.0 | 20.0 | 0.00 | 0.00 | 0.00 | 62 | 1006.6 |
| 20260504233047 | 79 | 152 | 9.0 | 20.0 | 0.00 | 0.00 | 0.00 | 61 | 1006.6 |
| 20260504232530 | 79 | 160 | 9.0 | 17.0 | 0.00 | 0.00 | 0.00 | 61 | 1006.7 |
| 20260504232033 | 79 | 215 | 8.0 | 17.0 | 0.00 | 0.00 | 0.00 | 61 | 1006.6 |
| 20260504231542 | 80 | 188 | 7.0 | 17.0 | 0.00 | 0.00 | 0.00 | 61 | 1006.8 |
| 20260504231031 | 80 | 174 | 8.0 | 17.0 | 0.00 | 0.00 | 0.00 | 60 | 1006.9 |
| 20260504230531 | 80 | 192 | 8.0 | 19.0 | 0.00 | 0.00 | 0.00 | 60 | 1006.8 |
| 20260504230042 | 80 | 213 | 9.0 | 23.0 | 0.00 | 0.00 | 0.00 | 59 | 1006.8 |
| 20260504225532 | 80 | 168 | 13.0 | 23.0 | 0.00 | 0.00 | 0.00 | 59 | 1006.9 |
| 20260504225031 | 80 | 162 | 11.0 | 24.0 | 0.00 | 0.00 | 0.00 | 59 | 1007.1 |
| 20260504224550 | 80 | 155 | 12.0 | 24.0 | 0.00 | 0.00 | 0.00 | 58 | 1007.0 |